Location: Newark
(52.2090°N, 4.1550°W)
Time: 07:12:57
(UTC+00:00)

Explorer 7 - Pass Details

Date: 29 September 2019
Orbit: 485 x 680 km, 50.3° (Epoch: 22 October)

Event Time Altitude Azimuth Distance (km) Brightness Sun altitude
Rises 02:31:45 0° 278° (W) 2,942 - -31.7°
Reaches altitude 10° 02:35:23 10° 249° (WSW) 2,065 - -31.3°
Maximum altitude 02:37:20 12° 225° (SW) 1,922 - -31.1°
Drops below altitude 10° 02:39:17 10° 201° (SSW) 2,090 - -30.9°
Sets 02:43:01 0° 172° (S) 3,017 - -30.5°
